Retour au catalogue

CONNECTA IOT-12

ActifCommunicationsSSO
NORAD 64553·PAYLOAD·🇹🇷 Turkey

Lancé Jun 23, 2025 depuis Vandenberg Space Force Base

Loading…

Prochains Passages (prochaines 24 heures)

TLE

FraisSource: Space-Track

Époque: Sep 14, 2026, 18:19 UTC

1 64553U 25135AB  26257.76339260  .00003178  00000-0  14625-3 0  9997
2 64553  97.4827  12.5631 0002416  91.8434 268.3078 15.21056182 68483

Suivez CONNECTA IOT-12 en temps réel avec AllMySat

Download on the App Store